DIRECTV 11

Last updated on Thu Nov 21 2024 00:02:41 GMT+0000 (Coordinated Universal Time)

1 32729U 08013A 24325.37856087 -.00000124 00000+0 00000+0 0 9991 2 32729 0.0020 256.3824 0000452 305.6344 254.9800 1.00272292 39840
UTC large
Height (km)
Speed (km/s)
/
Latitude / Longitude
Inclination (degrees)
Orbital Period (minutes)
Azimuth
Elevation
Range (km)
Doppler Factor

Next 0 passes for location: London (51.5072 / 0.1276)

Sorry there are no passes over London.